SCP
-0 0 0 0 0 0 0 0 0 0 0 -0 -0 -0 -0 -0 -0 0 -0 -0 -0 -0 -0 -0 -0 0 0 0 0 0 0 0 0 -0 0 0 0 -0 0 -0 -0 -0 -0
-0 -0 0 0 0 0 0 0 0 0 -0 -0 -0 0 -0 -0 -0 0 -0 -0 -0 -0 -0 0 0 0 0 0 0 0 0 0 0 0 0 0 0 -0 -0 -0 -0 -0 -0
-0 -0 0 0 0 0 0 0 0 0 -0 -0 0 0 -0 -0 -0 -0 -0 -0 -0 -0 -0 0 -0 0 0 0 0 0 0 0 0 0 0 0 0 -0 -0 -0 -0 -0 -0
-0 -0 -0 0 0 0 0 0 0 0 -0 0 0 0 -0 -0 -0 -0 -0 -0 -0 -0 -0 0 -0 0 0 0 0 0 0 0 0 0 0 0 -0 -0 -0 -0 -0 -0 -0
-0 -0 -0 0 0 0 0 0 0 0 0 0 0 0 -0 -0 -0 -0 -0 -0 -0 -0 0 0 0 -0 -0 0 0 -0 0 -0 0 0 -0 0 0 -0 -0 -0 -0 -0 -0
0 -0 0 0 0 0 0 0 0 0 0 0 0 0 -0 -0 -0 -0 0 -0 0 0 0 0 0 0 0 0 0 0 0 -0 0 -0 -0 -0 0 -0 -0 -0 -0 -0 -0
0 0 0 0 0 0 0 0 0 0 0 0 0 0 -0 -0 -0 0 0 0 0 0 0 0 0 0 0 0 0 0 0 0 -0 -0 -0 -0 -0 -0 -0 -0 -0 -0 -0
0 0 0 0 0 0 0 0 0 0 0 0 0 0 -0 -0 0 0 0 0 0 0 0 0 0 0 0 -0 -0 -0 0 0 -0 -0 0 -0 -0 -0 -0 -0 -0 -0 -0
-0 0 0 -0 0 0 0 0 0 0 0 -0 -0 0 0 0 0 0 0 0 0 0 0 0 0 0 0 -0 -0 -0 0 -0 -0 -0 -0 0 -0 -0 -0 -0 -0 -0 -0
-0 0 0 -0 -0 -0 -0 0 0 0 0 0 0 0 0 0 0 0 0 0 0 0 0 0 0 0 -0 0 -0 -0 -0 -0 0 0 -0 -0 -0 -0 -0 -0 -0 -0 -0
0 0 0 -0 -0 -0 -0 -0 0 -0 0 0 0 0 0 0 0 0 0 0 0 0 0 0 -0 0 0 0 0 0 -0 -0 0 0 -0 -0 -0 -0 -0 -0 -0 -0 -0
0 0 -0 -0 -0 -0 -0 -0 -0 -0 -0 -0 0 0 0 0 0 0 0 0 0 0 0 0 -0 0 0 0 0 0 0 0 0 0 0 -0 -0 -0 -0 -0 -0 -0 -0
-0 0 0 0 0 0 -0 -0 -0 -0 -0 -0 -0 -0 0 0 0 -0 0 0 -0 0 0 0 0 0 0 0 0 0 0 0 -0 0 -0 0 0 -0 -0 -0 -0 -0 -0
-0 -0 -0 0 0 -0 0 0 -0 -0 -0 -0 -0 -0 0 -0 -0 0 0 0 0 0 0 0 0 0 0 0 0 0 0 -0 -0 -0 -0 -0 -0 -0 -0 -0 -0 -0 -0
-0 0 -0 0 -0 0 -0 0 -0 -0 0 -0 0 -0 -0 -0 -0 -0 0 0 -0 -0 -0 0 0 0 0 -0 0 0 0 0 -0 0 -0 -0 -0 -0 -0 -0 -0 -0 -0
-0 -0 0 -0 0 -0 0 0 -0 -0 0 -0 0 0 -0 -0 0 0 0 -0 -0 -0 0 0 0 -0 -0 0 0 0 0 0 0 0 0 0 -0 -0 -0 -0 -0 -0 -0
0 0 -0 -0 0 0 0 -0 -0 0 0 -0 0 -0 -0 -0 0 -0 0 -0 0 0 0 0 0 0 0 0 0 0 0 0 0 0 0 0 0 -0 -0 -0 -0 -0 -0
0 -0 -0 -0 -0 -0 0 -0 -0 -0 0 -0 -0 -0 -0 -0 -0 0 0 0 0 0 0 0 0 0 0 0 0 0 0 0 0 0 0 0 0 0 0 -0 -0 -0 -0
-0 -0 -0 -0 -0 -0 -0 0 0 -0 0 -0 -0 -0 -0 -0 -0 -0 0 0 0 0 0 0 0 0 0 0 0 0 0 0 0 0 0 0 0 0 0 0 -0 0 -0
-0 -0 -0 -0 -1 -0 -0 -0 -0 -0 -0 -0 0 -0 -0 -0 -0 0 0 0 0 0 0 0 0 0 0 0 0 0 -0 -0 -0 -0 0 0 0 0 0 0 0 0 0
-0 -0 -0 -0 -1 -1 -0 -0 0 0 -0 -0 0 -0 -0 -0 -0 0 0 0 0 0 0 0 0 0 0 0 0 -0 -0 -0 0 0 0 0 0 0 0 0 0 0 0
-0 -0 -0 -0 -1 -1 -0 -0 0 0 -0 -0 -0 -0 -0 -0 0 0 0 0 0 0 0 0 0 0 0 0 0 0 0 -0 0 0 0 0 0 0 0 0 0 0 0
-0 -1 -1 -1 -1 -1 -0 0 0 0 -0 -0 -0 0 -0 0 0 0 0 0 0 0 0 0 0 0 0 0 0 0 0 0 0 0 0 0 0 0 0 0 0 0 0
-0 -1 -1 -0 -1 -0 -0 -0 0 0 0 -0 0 0 0 0 0 0 0 0 0 0 0 0 0 0 0 0 0 0 0 0 0 0 0 0 0 0 0 0 0 0 0
-1 -1 -1 -1 -0 -0 -0 0 0 0 0 -0 0 0 0 0 0 0 0 0 0 0 0 0 0 0 0 0 0 0 0 0 0 0 0 0 0 0 0 0 0 0 0
-0 -0 -0 -0 -0 0 0 0 0 0 0 -0 0 0 0 0 0 -0 -0 0 0 0 0 0 0 0 0 0 0 0 0 0 0 0 0 0 0 0 0 0 0 0 0
Wind_Speed_500mb
46 55 59 59 52 56 61 60 58 53 50 48 47 44 42 41 37 37 36 32 28 29 28 26 27 24 23 22 24 28 26 27 32 35 27 22 19 28 32 34 23 19 22
52 53 54 57 53 58 61 60 55 50 46 44 41 39 39 36 36 35 32 28 28 27 25 25 25 23 23 23 24 28 29 31 27 25 32 26 25 26 26 26 21 24 25
53 54 55 53 54 54 57 58 53 48 44 41 37 37 34 34 34 32 29 27 26 24 23 23 21 21 21 24 26 27 27 24 21 20 18 22 25 23 27 26 24 26 27
52 55 56 52 51 52 55 54 50 45 41 37 36 32 31 31 30 28 27 25 25 21 21 21 20 21 21 21 24 29 24 19 22 19 12 9 18 20 22 27 28 29 32
53 53 51 49 49 51 52 50 47 42 37 34 31 27 28 27 26 25 24 23 20 20 20 19 20 21 21 20 22 27 26 25 25 20 16 8 9 21 23 26 29 31 31
45 48 50 48 48 49 48 46 44 40 34 30 26 24 23 23 23 22 21 18 18 19 18 18 20 23 24 23 22 26 24 23 18 14 11 11 5 15 21 27 28 28 29
41 45 47 47 46 45 44 44 41 36 31 27 24 22 21 21 20 20 20 18 17 17 19 19 22 24 25 27 26 26 28 18 15 13 8 8 10 12 20 25 25 25 27
47 47 48 47 44 42 42 40 38 34 28 25 24 20 20 19 19 20 23 22 20 19 19 20 21 24 30 31 27 24 19 13 11 11 11 7 10 13 18 20 23 23 25
43 45 46 46 43 41 40 39 36 30 26 26 21 19 17 17 20 19 18 30 26 20 21 19 22 24 29 32 28 21 19 15 13 11 12 15 10 10 17 19 21 22 24
35 41 45 45 43 42 40 37 33 30 28 23 18 16 16 15 12 17 22 24 23 21 24 20 24 25 28 27 22 26 21 18 23 11 11 8 9 6 14 17 22 22 21
32 36 42 43 42 41 39 35 32 29 25 19 16 14 12 16 17 19 16 23 19 20 23 21 17 18 18 18 17 35 14 27 22 3 6 2 5 4 8 15 19 21 19
38 33 33 40 40 39 37 33 26 23 17 14 15 12 13 9 12 11 9 13 18 17 17 14 14 8 15 17 15 19 18 16 26 5 3 6 5 2 6 12 17 18 19
45 31 30 34 36 33 34 24 18 15 16 17 14 6 5 5 10 14 6 8 13 19 19 19 18 13 11 16 18 17 16 21 15 12 12 10 7 2 6 10 14 17 18
48 46 40 32 33 37 29 11 22 18 15 10 3 9 1 5 7 2 8 14 14 15 16 19 14 10 16 12 13 8 8 16 11 9 13 10 4 2 3 7 10 15 17
44 57 49 42 39 34 29 20 16 12 11 9 8 2 2 11 7 13 10 9 12 7 11 15 26 24 15 10 13 12 6 9 6 8 3 3 6 5 5 6 9 10 14
47 54 57 51 47 39 37 28 22 17 21 12 14 8 10 5 13 15 14 11 11 10 12 17 22 12 8 10 11 7 8 7 10 9 10 9 6 6 5 4 8 8 12
50 58 60 62 55 45 45 43 39 33 25 26 16 6 9 11 13 23 27 16 14 11 17 10 13 5 6 13 8 4 8 10 6 11 15 19 5 6 5 1 5 9 11
50 51 63 60 49 39 55 52 45 41 29 22 20 20 22 25 17 13 15 16 9 15 19 16 15 6 10 10 16 6 5 15 11 8 4 10 2 8 4 9 4 2 8
54 60 58 54 46 39 32 57 47 41 35 24 28 24 22 19 18 18 13 13 14 15 16 21 7 4 11 16 6 15 7 5 9 7 6 9 5 5 2 2 7 6 6
59 62 62 51 45 44 34 26 31 38 29 29 32 24 25 26 25 17 11 12 12 16 21 5 6 14 14 4 4 4 4 9 5 16 11 10 6 9 8 5 6 9 7
63 65 68 62 54 47 50 41 35 39 38 37 29 29 28 31 23 19 20 25 12 8 10 7 11 21 7 6 14 5 12 5 13 11 5 12 14 9 8 4 12 8 5
69 70 69 67 61 55 51 46 39 34 35 27 29 34 31 25 22 21 15 14 20 12 15 9 14 13 9 4 16 2 5 15 12 13 10 5 9 5 3 9 15 16 20
77 75 73 69 65 64 50 47 40 31 36 28 35 35 33 24 20 23 20 18 19 22 17 13 7 23 16 11 15 8 7 7 16 15 9 7 8 12 14 15 9 13 9
84 78 74 71 68 69 64 56 49 45 41 32 22 31 31 30 22 20 23 25 26 29 27 22 6 20 24 21 9 5 9 6 9 12 17 12 1 9 6 6 12 8 10
90 87 81 76 71 66 74 69 58 44 45 34 27 28 27 35 24 19 28 35 32 31 27 19 13 17 32 24 17 19 6 7 9 8 21 21 15 14 10 4 10 13 10
92 90 88 83 77 69 60 67 63 51 44 44 42 42 39 39 30 30 38 32 30 34 30 22 18 22 26 33 31 24 19 4 8 5 5 3 8 24 23 16 12 12 15
Wind_Direction_500mb
129 129 128 127 125 127 130 133 132 127 122 117 112 112 108 102 105 99 94 93 86 77 71 69 69 72 79 88 94 98 88 98 94 102 92 94 99 122 118 113 113 106 110
131 133 132 133 129 131 135 139 136 129 126 119 114 111 104 105 101 97 92 89 81 73 67 66 66 68 76 78 83 102 94 87 102 97 80 77 104 124 127 124 110 115 112
131 138 141 138 134 135 140 141 138 132 127 121 118 108 107 104 98 92 89 85 79 70 64 63 66 69 71 77 85 106 98 85 80 85 84 61 96 128 116 125 119 116 113
131 136 139 139 137 138 140 143 142 135 131 126 115 108 104 98 95 90 84 80 74 64 57 58 62 65 72 77 88 107 114 93 67 67 89 51 88 128 124 124 119 115 113
136 139 137 139 140 143 143 145 144 142 137 127 118 108 102 100 94 84 75 76 72 62 55 55 65 64 64 74 84 104 120 107 94 96 118 96 77 126 126 121 124 119 117
136 143 142 144 145 145 146 147 148 145 135 129 124 113 103 96 87 75 68 69 60 55 53 50 62 72 65 66 77 96 130 121 106 115 105 65 86 131 136 124 125 118 123
149 147 147 151 150 147 149 152 148 143 138 135 126 117 109 95 79 64 55 55 52 54 54 53 54 64 70 69 75 95 121 118 118 152 144 52 85 127 142 132 131 123 128
152 150 150 150 151 151 152 151 150 149 144 137 130 120 100 86 71 61 59 48 41 45 48 52 54 60 66 77 75 78 102 94 72 71 148 42 79 124 151 140 135 129 131
160 156 155 154 154 155 156 154 153 152 148 140 133 117 104 87 73 63 68 37 33 39 47 67 62 67 70 76 82 73 50 35 45 60 38 34 50 130 149 152 143 135 138
153 165 163 160 161 158 158 156 156 156 153 146 136 130 118 91 89 63 53 42 44 53 53 67 78 83 75 69 60 65 42 25 88 337 90 33 47 116 154 162 150 141 140
161 169 165 166 164 160 160 159 160 162 159 144 144 128 105 76 69 40 46 44 39 50 50 79 77 80 78 58 43 46 23 29 317 166 128 103 48 66 147 176 159 152 146
159 161 162 166 167 168 167 164 165 170 165 151 153 114 82 49 54 28 36 18 3 30 33 32 15 19 51 42 38 29 18 34 44 3 197 168 57 102 162 178 169 166 158
172 165 168 163 167 171 172 171 177 149 160 131 134 134 236 39 61 48 310 5 24 13 360 4 17 47 19 34 20 18 19 22 38 56 117 125 53 109 195 179 169 174 176
178 177 176 171 161 165 161 149 162 145 127 140 127 78 71 207 147 232 302 356 356 352 346 340 337 2 18 0 27 33 7 32 39 69 117 122 129 64 232 206 171 176 183
181 179 183 177 168 183 193 174 183 192 182 200 207 57 62 158 185 216 276 287 295 302 315 315 334 341 359 38 51 54 96 65 349 9 46 14 27 33 312 247 204 183 191
187 188 187 189 179 185 179 194 200 223 191 207 197 227 270 229 245 239 243 264 271 294 289 308 338 339 42 18 7 20 34 60 338 333 299 263 292 327 355 275 237 209 211
176 187 197 192 189 201 193 200 200 184 179 197 202 209 209 233 279 249 254 276 267 287 305 317 324 322 331 326 18 17 20 326 260 290 315 268 197 278 320 1 220 227 228
179 194 189 189 200 214 208 204 202 199 192 209 220 233 267 283 290 287 273 242 254 287 288 303 298 205 309 284 297 299 262 35 21 294 318 139 47 44 293 1 5 301 247
181 192 192 204 216 213 202 213 214 207 199 208 237 221 231 272 265 301 290 227 295 245 285 294 259 285 288 296 260 13 161 21 346 94 55 21 228 13 293 0 319 335 296
196 195 204 204 217 219 222 215 207 193 208 221 228 226 245 261 259 284 263 255 280 298 280 255 232 320 322 29 328 349 239 334 35 92 50 98 78 44 132 147 299 304 282
202 202 206 208 212 219 216 205 197 196 212 220 219 222 238 259 267 254 283 241 249 275 243 242 291 307 133 44 301 281 218 47 135 146 199 133 81 40 339 330 301 306 307
205 206 208 211 208 216 220 214 212 211 225 226 221 224 235 255 276 253 258 214 205 214 218 241 309 167 161 119 352 289 190 176 151 193 213 319 194 134 242 331 332 309 281
205 209 211 210 207 212 214 210 213 228 213 226 221 218 229 246 257 249 227 219 202 206 218 241 284 164 138 112 28 56 91 132 188 188 227 114 227 234 254 276 323 343 292
207 210 214 213 212 212 215 215 223 220 211 211 222 218 229 235 232 215 214 240 210 209 230 238 211 173 165 152 135 64 41 80 123 170 209 208 285 234 277 298 358 352 336
205 209 214 215 216 219 217 222 220 216 213 200 227 228 236 225 217 205 215 212 218 231 221 233 198 171 174 167 168 172 144 138 113 162 212 228 219 239 245 295 347 358 349
205 209 212 214 216 220 221 218 215 207 206 212 214 228 225 206 224 226 223 227 218 217 219 225 230 212 196 190 183 176 180 139 190 181 127 83 332 243 233 248 276 320 322
Wind_Speed_850mb
46 55 59 59 52 56 61 60 58 53 50 48 47 44 42 41 37 37 36 32 28 29 28 26 27 24 23 22 24 28 26 27 32 35 27 22 19 28 32 34 23 19 22
52 53 54 57 53 58 61 60 55 50 46 44 41 39 39 36 36 35 32 28 28 27 25 25 25 23 23 23 24 28 29 31 27 25 32 26 25 26 26 26 21 24 25
53 54 55 53 54 54 57 58 53 48 44 41 37 37 34 34 34 32 29 27 26 24 23 23 21 21 21 24 26 27 27 24 21 20 18 22 25 23 27 26 24 26 27
52 55 56 52 51 52 55 54 50 45 41 37 36 32 31 31 30 28 27 25 25 21 21 21 20 21 21 21 24 29 24 19 22 19 12 9 18 20 22 27 28 29 32
53 53 51 49 49 51 52 50 47 42 37 34 31 27 28 27 26 25 24 23 20 20 20 19 20 21 21 20 22 27 26 25 25 20 16 8 9 21 23 26 29 31 31
45 48 50 48 48 49 48 46 44 40 34 30 26 24 23 23 23 22 21 18 18 19 18 18 20 23 24 23 22 26 24 23 18 14 11 11 5 15 21 27 28 28 29
41 45 47 47 46 45 44 44 41 36 31 27 24 22 21 21 20 20 20 18 17 17 19 19 22 24 25 27 26 26 28 18 15 13 8 8 10 12 20 25 25 25 27
47 47 48 47 44 42 42 40 38 34 28 25 24 20 20 19 19 20 23 22 20 19 19 20 21 24 30 31 27 24 19 13 11 11 11 7 10 13 18 20 23 23 25
43 45 46 46 43 41 40 39 36 30 26 26 21 19 17 17 20 19 18 30 26 20 21 19 22 24 29 32 28 21 19 15 13 11 12 15 10 10 17 19 21 22 24
35 41 45 45 43 42 40 37 33 30 28 23 18 16 16 15 12 17 22 24 23 21 24 20 24 25 28 27 22 26 21 18 23 11 11 8 9 6 14 17 22 22 21
32 36 42 43 42 41 39 35 32 29 25 19 16 14 12 16 17 19 16 23 19 20 23 21 17 18 18 18 17 35 14 27 22 3 6 2 5 4 8 15 19 21 19
38 33 33 40 40 39 37 33 26 23 17 14 15 12 13 9 12 11 9 13 18 17 17 14 14 8 15 17 15 19 18 16 26 5 3 6 5 2 6 12 17 18 19
45 31 30 34 36 33 34 24 18 15 16 17 14 6 5 5 10 14 6 8 13 19 19 19 18 13 11 16 18 17 16 21 15 12 12 10 7 2 6 10 14 17 18
48 46 40 32 33 37 29 11 22 18 15 10 3 9 1 5 7 2 8 14 14 15 16 19 14 10 16 12 13 8 8 16 11 9 13 10 4 2 3 7 10 15 17
44 57 49 42 39 34 29 20 16 12 11 9 8 2 2 11 7 13 10 9 12 7 11 15 26 24 15 10 13 12 6 9 6 8 3 3 6 5 5 6 9 10 14
47 54 57 51 47 39 37 28 22 17 21 12 14 8 10 5 13 15 14 11 11 10 12 17 22 12 8 10 11 7 8 7 10 9 10 9 6 6 5 4 8 8 12
50 58 60 62 55 45 45 43 39 33 25 26 16 6 9 11 13 23 27 16 14 11 17 10 13 5 6 13 8 4 8 10 6 11 15 19 5 6 5 1 5 9 11
50 51 63 60 49 39 55 52 45 41 29 22 20 20 22 25 17 13 15 16 9 15 19 16 15 6 10 10 16 6 5 15 11 8 4 10 2 8 4 9 4 2 8
54 60 58 54 46 39 32 57 47 41 35 24 28 24 22 19 18 18 13 13 14 15 16 21 7 4 11 16 6 15 7 5 9 7 6 9 5 5 2 2 7 6 6
59 62 62 51 45 44 34 26 31 38 29 29 32 24 25 26 25 17 11 12 12 16 21 5 6 14 14 4 4 4 4 9 5 16 11 10 6 9 8 5 6 9 7
63 65 68 62 54 47 50 41 35 39 38 37 29 29 28 31 23 19 20 25 12 8 10 7 11 21 7 6 14 5 12 5 13 11 5 12 14 9 8 4 12 8 5
69 70 69 67 61 55 51 46 39 34 35 27 29 34 31 25 22 21 15 14 20 12 15 9 14 13 9 4 16 2 5 15 12 13 10 5 9 5 3 9 15 16 20
77 75 73 69 65 64 50 47 40 31 36 28 35 35 33 24 20 23 20 18 19 22 17 13 7 23 16 11 15 8 7 7 16 15 9 7 8 12 14 15 9 13 9
84 78 74 71 68 69 64 56 49 45 41 32 22 31 31 30 22 20 23 25 26 29 27 22 6 20 24 21 9 5 9 6 9 12 17 12 1 9 6 6 12 8 10
90 87 81 76 71 66 74 69 58 44 45 34 27 28 27 35 24 19 28 35 32 31 27 19 13 17 32 24 17 19 6 7 9 8 21 21 15 14 10 4 10 13 10
92 90 88 83 77 69 60 67 63 51 44 44 42 42 39 39 30 30 38 32 30 34 30 22 18 22 26 33 31 24 19 4 8 5 5 3 8 24 23 16 12 12 15
Wind_Direction_850mb
129 129 128 127 125 127 130 133 132 127 122 117 112 112 108 102 105 99 94 93 86 77 71 69 69 72 79 88 94 98 88 98 94 102 92 94 99 122 118 113 113 106 110
131 133 132 133 129 131 135 139 136 129 126 119 114 111 104 105 101 97 92 89 81 73 67 66 66 68 76 78 83 102 94 87 102 97 80 77 104 124 127 124 110 115 112
131 138 141 138 134 135 140 141 138 132 127 121 118 108 107 104 98 92 89 85 79 70 64 63 66 69 71 77 85 106 98 85 80 85 84 61 96 128 116 125 119 116 113
131 136 139 139 137 138 140 143 142 135 131 126 115 108 104 98 95 90 84 80 74 64 57 58 62 65 72 77 88 107 114 93 67 67 89 51 88 128 124 124 119 115 113
136 139 137 139 140 143 143 145 144 142 137 127 118 108 102 100 94 84 75 76 72 62 55 55 65 64 64 74 84 104 120 107 94 96 118 96 77 126 126 121 124 119 117
136 143 142 144 145 145 146 147 148 145 135 129 124 113 103 96 87 75 68 69 60 55 53 50 62 72 65 66 77 96 130 121 106 115 105 65 86 131 136 124 125 118 123
149 147 147 151 150 147 149 152 148 143 138 135 126 117 109 95 79 64 55 55 52 54 54 53 54 64 70 69 75 95 121 118 118 152 144 52 85 127 142 132 131 123 128
152 150 150 150 151 151 152 151 150 149 144 137 130 120 100 86 71 61 59 48 41 45 48 52 54 60 66 77 75 78 102 94 72 71 148 42 79 124 151 140 135 129 131
160 156 155 154 154 155 156 154 153 152 148 140 133 117 104 87 73 63 68 37 33 39 47 67 62 67 70 76 82 73 50 35 45 60 38 34 50 130 149 152 143 135 138
153 165 163 160 161 158 158 156 156 156 153 146 136 130 118 91 89 63 53 42 44 53 53 67 78 83 75 69 60 65 42 25 88 337 90 33 47 116 154 162 150 141 140
161 169 165 166 164 160 160 159 160 162 159 144 144 128 105 76 69 40 46 44 39 50 50 79 77 80 78 58 43 46 23 29 317 166 128 103 48 66 147 176 159 152 146
159 161 162 166 167 168 167 164 165 170 165 151 153 114 82 49 54 28 36 18 3 30 33 32 15 19 51 42 38 29 18 34 44 3 197 168 57 102 162 178 169 166 158
172 165 168 163 167 171 172 171 177 149 160 131 134 134 236 39 61 48 310 5 24 13 360 4 17 47 19 34 20 18 19 22 38 56 117 125 53 109 195 179 169 174 176
178 177 176 171 161 165 161 149 162 145 127 140 127 78 71 207 147 232 302 356 356 352 346 340 337 2 18 0 27 33 7 32 39 69 117 122 129 64 232 206 171 176 183
181 179 183 177 168 183 193 174 183 192 182 200 207 57 62 158 185 216 276 287 295 302 315 315 334 341 359 38 51 54 96 65 349 9 46 14 27 33 312 247 204 183 191
187 188 187 189 179 185 179 194 200 223 191 207 197 227 270 229 245 239 243 264 271 294 289 308 338 339 42 18 7 20 34 60 338 333 299 263 292 327 355 275 237 209 211
176 187 197 192 189 201 193 200 200 184 179 197 202 209 209 233 279 249 254 276 267 287 305 317 324 322 331 326 18 17 20 326 260 290 315 268 197 278 320 1 220 227 228
179 194 189 189 200 214 208 204 202 199 192 209 220 233 267 283 290 287 273 242 254 287 288 303 298 205 309 284 297 299 262 35 21 294 318 139 47 44 293 1 5 301 247
181 192 192 204 216 213 202 213 214 207 199 208 237 221 231 272 265 301 290 227 295 245 285 294 259 285 288 296 260 13 161 21 346 94 55 21 228 13 293 0 319 335 296
196 195 204 204 217 219 222 215 207 193 208 221 228 226 245 261 259 284 263 255 280 298 280 255 232 320 322 29 328 349 239 334 35 92 50 98 78 44 132 147 299 304 282
202 202 206 208 212 219 216 205 197 196 212 220 219 222 238 259 267 254 283 241 249 275 243 242 291 307 133 44 301 281 218 47 135 146 199 133 81 40 339 330 301 306 307
205 206 208 211 208 216 220 214 212 211 225 226 221 224 235 255 276 253 258 214 205 214 218 241 309 167 161 119 352 289 190 176 151 193 213 319 194 134 242 331 332 309 281
205 209 211 210 207 212 214 210 213 228 213 226 221 218 229 246 257 249 227 219 202 206 218 241 284 164 138 112 28 56 91 132 188 188 227 114 227 234 254 276 323 343 292
207 210 214 213 212 212 215 215 223 220 211 211 222 218 229 235 232 215 214 240 210 209 230 238 211 173 165 152 135 64 41 80 123 170 209 208 285 234 277 298 358 352 336
205 209 214 215 216 219 217 222 220 216 213 200 227 228 236 225 217 205 215 212 218 231 221 233 198 171 174 167 168 172 144 138 113 162 212 228 219 239 245 295 347 358 349
205 209 212 214 216 220 221 218 215 207 206 212 214 228 225 206 224 226 223 227 218 217 219 225 230 212 196 190 183 176 180 139 190 181 127 83 332 243 233 248 276 320 322